K2BIG Weather Reports


time (UTC)temp
C
wind
direction
speed
KPH
gust
KPH
rain 1hr
cm
rain 24hr
cm
rain mn
cm
humidity
%
barometer
mb
20260507230516 15 270 1.6 3.2 0.00 0.10 0.05 43 1007.9
20260507230017 15 270 1.6 6.4 0.00 0.10 0.05 45 1007.9
20260507225516 15 293 1.6 4.8 0.00 0.10 0.05 42 1007.9
20260507225016 15 270 4.8 11.3 0.00 0.10 0.05 43 1008.0
20260507224516 15 248 1.6 8.0 0.00 0.10 0.05 43 1007.8
20260507224016 15 293 4.8 14.5 0.00 0.10 0.05 42 1007.9
20260507223516 15 315 3.2 11.3 0.00 0.10 0.05 40 1007.9
20260507223016 15 293 1.6 4.8 0.00 0.10 0.05 40 1008.0
20260507222516 15 315 4.8 9.7 0.00 0.10 0.05 39 1008.0
20260507222016 16 293 3.2 4.8 0.00 0.10 0.05 40 1008.0
20260507221516 16 293 3.2 8.0 0.00 0.10 0.05 41 1008.1
20260507221016 16 293 3.2 12.9 0.00 0.10 0.05 39 1008.1
20260507220516 16 270 3.2 11.3 0.00 0.10 0.05 39 1008.1
20260507220016 17 293 6.4 11.3 0.00 0.10 0.05 39 1008.2
20260507215516 17 293 6.4 14.5 0.00 0.10 0.05 39 1008.2
20260507215016 17 270 4.8 12.9 0.00 0.10 0.05 39 1008.2
20260507214516 17 293 4.8 17.7 0.00 0.10 0.05 39 1008.2
20260507214016 17 270 3.2 11.3 0.00 0.10 0.05 39 1008.1
20260507213516 17 293 4.8 14.5 0.00 0.10 0.05 37 1008.1
20260507213016 17 270 4.8 14.5 0.00 0.10 0.05 36 1008.0
20260507212516 18 315 4.8 14.5 0.00 0.10 0.05 35 1008.0
20260507212016 18 315 3.2 11.3 0.00 0.10 0.05 35 1007.9
20260507211516 18 315 4.8 12.9 0.00 0.10 0.05 36 1007.9
20260507211016 18 270 4.8 14.5 0.00 0.10 0.05 38 1007.8
20260507210516 18 270 9.7 19.3 0.00 0.10 0.05 35 1007.8
20260507210016 18 293 8.0 17.7 0.00 0.10 0.05 37 1007.7
20260507205516 18 270 6.4 14.5 0.00 0.10 0.05 38 1007.7
20260507205016 18 270 6.4 25.7 0.00 0.10 0.05 36 1007.8
20260507204516 18 225 3.2 11.3 0.00 0.10 0.05 37 1007.8
20260507204016 18 338 4.8 12.9 0.00 0.10 0.05 39 1007.8
20260507203516 18 270 4.8 11.3 0.00 0.10 0.05 38 1007.8
20260507203016 18 338 1.6 4.8 0.00 0.10 0.05 40 1007.8
20260507202516 17 248 6.4 11.3 0.00 0.10 0.05 40 1007.7
20260507202016 17 293 6.4 14.5 0.00 0.13 0.05 42 1007.8
20260507201516 17 293 4.8 14.5 0.00 0.13 0.05 39 1007.8
20260507201016 17 293 6.4 14.5 0.00 0.13 0.05 38 1007.9
20260507200516 17 315 6.4 14.5 0.00 0.15 0.05 38 1007.8
20260507200016 18 315 4.8 16.1 0.00 0.15 0.05 38 1007.7
20260507195516 18 293 4.8 11.3 0.00 0.18 0.05 37 1007.9
20260507195016 19 315 4.8 11.3 0.00 0.18 0.05 36 1007.9
20260507194516 19 0 4.8 14.5 0.00 0.18 0.05 39 1007.9
20260507194016 18 315 4.8 16.1 0.00 0.18 0.05 40 1007.9
20260507193516 18 293 4.8 14.5 0.00 0.18 0.05 37 1007.9
20260507193016 18 225 6.4 14.5 0.00 0.18 0.05 39 1008.1
20260507192516 18 315 6.4 16.1 0.00 0.20 0.05 36 1008.2
20260507192016 18 225 6.4 14.5 0.00 0.20 0.05 40 1008.3
20260507191516 18 270 3.2 11.3 0.00 0.20 0.05 45 1008.4
20260507191016 17 248 4.8 9.7 0.00 0.20 0.05 44 1008.3
20260507190516 17 248 3.2 11.3 0.00 0.20 0.05 42 1008.5
20260507190016 16 270 1.6 4.8 0.00 0.23 0.05 45 1008.6
20260507185516 17 315 4.8 11.3 0.00 0.23 0.05 40 1008.6
20260507185016 17 315 4.8 12.9 0.00 0.23 0.05 38 1008.7
20260507184516 18 270 8.0 19.3 0.00 0.25 0.05 38 1008.8
20260507184016 18 248 8.0 17.7 0.00 0.25 0.05 43 1008.7
20260507183516 17 270 3.2 12.9 0.00 0.28 0.05 45 1008.8
20260507183016 17 293 3.2 11.3 0.00 0.30 0.05 43 1008.7
20260507182516 17 293 3.2 9.7 0.00 0.33 0.05 41 1008.9
20260507182016 17 293 3.2 6.4 0.00 0.36 0.05 39 1008.9
20260507181516 17 293 4.8 12.9 0.00 0.38 0.05 44 1009.1
20260507181016 18 270 8.0 16.1 0.00 0.38 0.05 38 1009.1
20260507180516 18 315 4.8 14.5 0.00 0.38 0.05 41 1009.1
20260507180016 17 270 1.6 11.3 0.00 0.38 0.05 42 1009.1
20260507175516 17 45 3.2 9.7 0.00 0.38 0.05 42 1009.1
20260507175016 17 315 4.8 11.3 0.00 0.38 0.05 45 1009.3
20260507174516 17 293 3.2 11.3 0.00 0.41 0.05 42 1009.3
20260507174016 17 248 4.8 9.7 0.00 0.41 0.05 40 1009.4
20260507173516 17 203 8.0 16.1 0.00 0.43 0.05 40 1009.5
20260507173016 17 225 8.0 22.5 0.00 0.46 0.05 48 1009.5
20260507172516 17 315 8.0 22.5 0.00 0.53 0.05 40 1009.5
20260507172016 17 225 11.3 19.3 0.00 0.58 0.05 40 1009.7
20260507171516 17 225 6.4 19.3 0.00 0.61 0.05 46 1009.6
20260507171016 17 225 4.8 11.3 0.00 0.61 0.05 41 1009.7
20260507170516 17 248 8.0 16.1 0.00 0.61 0.05 44 1009.8
20260507170016 17 293 6.4 12.9 0.00 0.61 0.05 42 1009.8
20260507165516 17 315 6.4 16.1 0.00 0.61 0.05 46 1009.9
20260507165016 17 293 3.2 9.7 0.00 0.64 0.05 43 1009.8
20260507164516 17 315 4.8 11.3 0.00 0.64 0.05 42 1009.9
20260507164016 17 293 3.2 11.3 0.00 0.64 0.05 48 1009.9
20260507163516 17 225 3.2 9.7 0.00 0.66 0.05 41 1009.9
20260507163016 17 315 3.2 8.0 0.00 0.66 0.05 44 1010.0
20260507162516 17 270 8.0 16.1 0.00 0.69 0.05 46 1010.1
20260507162016 17 293 4.8 12.9 0.00 0.71 0.05 44 1010.1
20260507161516 17 225 4.8 12.9 0.00 0.71 0.05 42 1010.2
20260507161017 17 248 6.4 14.5 0.00 0.71 0.05 51 1010.3
20260507160516 16 248 3.2 9.7 0.00 0.71 0.05 48 1010.3
20260507160016 16 293 4.8 12.9 0.00 0.71 0.05 47 1010.4
20260507155516 16 270 6.4 16.1 0.00 0.74 0.05 44 1010.6
20260507155016 16 293 4.8 16.1 0.00 0.74 0.05 45 1010.7
20260507154516 15 270 4.8 11.3 0.00 0.76 0.05 48 1010.7
20260507154016 16 270 8.0 16.1 0.00 0.76 0.05 48 1010.8
20260507153515 15 315 6.4 14.5 0.00 0.76 0.05 48 1010.9
20260507153016 16 315 6.4 12.9 0.00 0.76 0.05 43 1010.9
20260507152516 15 0 4.8 12.9 0.00 0.76 0.05 45 1010.8
20260507152015 15 315 3.2 8.0 0.00 0.76 0.05 46 1011.1
20260507151516 15 225 8.0 17.7 0.00 0.76 0.05 50 1011.0
20260507151015 15 23 3.2 9.7 0.00 0.76 0.05 52 1011.1
20260507150516 15 293 3.2 12.9 0.00 0.76 0.05 48 1011.1
20260507150015 15 68 4.8 8.0 0.00 0.76 0.05 43 1011.1
20260507145515 15 293 3.2 9.7 0.00 0.76 0.05 50 1011.1
20260507145015 15 293 4.8 11.3 0.00 0.76 0.05 51 1011.2
20260507144515 15 315 3.2 8.0 0.00 0.76 0.05 44 1011.1
20260507144016 15 293 1.6 4.8 0.00 0.76 0.05 43 1011.1
20260507143515 15 293 3.2 11.3 0.00 0.76 0.05 51 1011.3
20260507143015 15 315 3.2 11.3 0.00 0.76 0.05 53 1011.3
20260507142515 15 293 8.0 17.7 0.00 0.76 0.05 52 1011.3
20260507142015 15 293 1.6 4.8 0.00 0.76 0.05 55 1011.3
20260507141515 15 270 3.2 11.3 0.00 0.76 0.05 58 1011.4
20260507141015 14 248 3.2 6.4 0.00 0.76 0.05 53 1011.4
20260507140515 14 225 4.8 11.3 0.00 0.76 0.05 56 1011.5
20260507140015 14 315 3.2 8.0 0.00 0.76 0.05 56 1011.5
20260507135515 13 248 3.2 8.0 0.00 0.76 0.05 59 1011.5
20260507135015 13 293 4.8 11.3 0.00 0.76 0.05 54 1011.5
20260507134515 13 315 3.2 11.3 0.00 0.76 0.05 54 1011.5
20260507134015 14 225 1.6 6.4 0.00 0.76 0.05 55 1011.5
20260507133515 14 293 3.2 9.7 0.00 0.76 0.05 57 1011.5
20260507133015 13 293 3.2 6.4 0.00 0.76 0.05 62 1011.5
20260507132515 13 0 1.6 4.8 0.00 0.76 0.05 56 1011.5
20260507132015 13 270 4.8 9.7 0.00 0.76 0.05 63 1011.5
20260507131515 13 270 4.8 11.3 0.00 0.76 0.05 57 1011.4
20260507131015 13 315 3.2 12.9 0.00 0.76 0.05 63 1011.3
20260507130515 13 315 3.2 8.0 0.00 0.76 0.05 61 1011.3
20260507130015 13 338 1.6 8.0 0.00 0.76 0.05 61 1011.2
20260507125515 12 90 3.2 8.0 0.00 0.76 0.05 63 1011.2
20260507125015 12 293 1.6 4.8 0.00 0.76 0.05 63 1011.2
20260507124515 12 293 4.8 8.0 0.00 0.76 0.05 62 1011.2
20260507124016 12 270 3.2 6.4 0.00 0.76 0.05 63 1011.1
20260507123515 12 315 3.2 6.4 0.00 0.76 0.05 66 1011.1
20260507123015 12 0 3.2 6.4 0.00 0.76 0.05 65 1011.0
20260507122515 12 315 3.2 9.7 0.00 0.76 0.05 66 1011.0
20260507122015 11 293 3.2 8.0 0.00 0.76 0.05 69 1011.1
20260507121515 11 293 3.2 6.4 0.00 0.76 0.05 73 1011.1
20260507121015 11 293 3.2 6.4 0.00 0.76 0.05 75 1011.1
20260507120515 11 270 4.8 12.9 0.00 0.76 0.05 72 1011.1
20260507120015 10 293 3.2 9.7 0.00 0.76 0.05 74 1011.1
20260507115515 10 293 3.2 11.3 0.00 0.76 0.05 76 1011.1
20260507115015 10 293 3.2 12.9 0.00 0.76 0.05 78 1011.1
20260507114515 9 315 3.2 9.7 0.00 0.76 0.05 80 1011.0
20260507114015 9 293 3.2 6.4 0.00 0.76 0.05 81 1010.9
20260507113515 9 293 3.2 11.3 0.00 0.76 0.05 83 1010.9
20260507113015 9 270 1.6 4.8 0.00 0.76 0.05 87 1011.0
20260507112515 8 0.0 4.8 0.00 0.76 0.05 87 1010.9
20260507112015 8 270 1.6 6.4 0.00 0.76 0.05 88 1010.8
20260507111515 8 0.0 3.2 0.00 0.76 0.05 88 1010.7
20260507111015 8 0.0 0.0 0.00 0.76 0.05 89 1010.6
20260507110515 8 0.0 0.0 0.00 0.76 0.05 88 1010.5
20260507110015 8 293 1.6 8.0 0.00 0.76 0.05 88 1010.4
20260507105515 8 293 1.6 6.4 0.00 0.76 0.05 89 1010.4
20260507105015 8 293 1.6 6.4 0.00 0.76 0.05 89 1010.2
20260507104515 8 293 1.6 4.8 0.00 0.76 0.05 90 1010.3
20260507104016 8 293 1.6 6.4 0.00 0.76 0.05 90 1010.2
20260507103515 8 293 1.6 6.4 0.00 0.76 0.05 91 1010.0
20260507103015 8 0.0 3.2 0.00 0.76 0.05 92 1010.0
20260507102515 8 293 1.6 6.4 0.00 0.76 0.05 93 1009.8
20260507102015 8 0.0 0.0 0.00 0.76 0.05 95 1009.8
20260507101515 8 0.0 0.0 0.00 0.76 0.05 95 1009.7
20260507101015 8 0.0 0.0 0.00 0.76 0.05 94 1009.6
20260507100515 8 0.0 3.2 0.00 0.76 0.05 94 1009.6
20260507100015 8 0.0 0.0 0.00 0.76 0.05 94 1009.4
20260507095515 8 0.0 0.0 0.00 0.76 0.05 94 1009.4
20260507095015 8 0.0 0.0 0.00 0.76 0.05 94 1009.3
20260507094515 8 0.0 1.6 0.00 0.76 0.05 93 1009.3
20260507094015 8 0.0 0.0 0.00 0.76 0.05 93 1009.3
20260507093515 8 0.0 0.0 0.00 0.76 0.05 93 1009.2
20260507093015 8 0.0 0.0 0.00 0.76 0.05 93 1009.1
20260507092515 8 0.0 0.0 0.00 0.76 0.05 93 1009.2
20260507092015 8 0.0 0.0 0.00 0.76 0.05 93 1009.3
20260507091515 8 0.0 1.6 0.00 0.76 0.05 92 1009.3
20260507091015 8 0.0 0.0 0.00 0.76 0.05 92 1009.3
20260507090515 8 0.0 0.0 0.00 0.76 0.05 92 1009.4
20260507090015 8 0.0 0.0 0.00 0.76 0.05 91 1009.4
20260507085515 8 0.0 0.0 0.00 0.76 0.05 91 1009.2
20260507085016 8 0.0 0.0 0.00 0.76 0.05 91 1009.1
20260507084515 8 0.0 1.6 0.00 0.76 0.05 90 1009.4
20260507084015 8 0.0 3.2 0.00 0.76 0.05 89 1009.4
20260507083517 8 315 1.6 6.4 0.00 0.76 0.05 89 1009.5
20260507083017 8 0.0 4.8 0.00 0.76 0.05 89 1009.4
20260507082517 8 293 1.6 4.8 0.00 0.76 0.05 89 1009.5
20260507082017 8 315 1.6 6.4 0.00 0.76 0.05 90 1009.6
20260507081517 8 293 1.6 6.4 0.00 0.76 0.05 90 1009.7
20260507081017 8 270 1.6 6.4 0.00 0.76 0.05 90 1009.6
20260507080517 8 270 1.6 14.5 0.00 0.76 0.05 91 1009.7
20260507080017 8 0.0 9.7 0.00 0.76 0.05 92 1009.7
20260507075517 8 0.0 1.6 0.00 0.76 0.05 91 1009.5
20260507075017 8 0.0 4.8 0.00 0.76 0.05 91 1009.6
20260507074517 8 0.0 1.6 0.00 0.76 0.05 91 1009.9
20260507074016 8 270 1.6 4.8 0.00 0.76 0.05 91 1009.7
20260507073517 8 270 1.6 9.7 0.00 0.76 0.05 92 1009.6
20260507073017 9 270 1.6 4.8 0.00 0.76 0.05 93 1009.9
20260507072517 9 270 1.6 4.8 0.00 0.76 0.05 93 1009.7
20260507072017 9 0.0 3.2 0.00 0.76 0.05 93 1009.7
20260507071517 9 0.0 0.0 0.03 0.76 0.05 93 1009.7
20260507071017 9 0.0 1.6 0.03 0.76 0.05 93 1009.7
20260507070517 9 0.0 3.2 0.03 0.76 0.05 93 1009.9
20260507070016 9 0.0 1.6 0.03 0.76 0.05 93 1009.5
20260507065517 10 0.0 1.6 0.03 0.76 0.05 93 1009.8
20260507065016 10 0.0 0.0 0.03 0.76 0.05 93 1009.4
20260507064516 10 0.0 0.0 0.05 0.76 0.05 93 1009.4
20260507064017 10 0.0 0.0 0.05 0.76 0.05 93 1009.4
20260507063517 10 0.0 0.0 0.05 0.76 0.05 93 1009.4
20260507063017 10 0.0 3.2 0.05 0.76 0.05 93 1009.4
20260507062517 10 0.0 1.6 0.05 0.76 0.05 93 1009.5
20260507062017 10 0.0 1.6 0.05 0.76 0.05 92 1009.1
20260507061517 10 0.0 0.0 0.03 0.74 0.03 92 1009.0
20260507061016 10 0.0 0.0 0.03 0.74 0.03 91 1008.9
20260507060517 10 0.0 0.0 0.03 0.74 0.03 90 1008.9
20260507060016 10 0.0 0.0 0.03 0.74 0.03 90 1009.1
20260507055517 10 0.0 3.2 0.03 0.74 0.03 89 1008.9
20260507055017 10 0.0 3.2 0.03 0.74 0.03 89 1008.7
20260507054516 10 0.0 3.2 0.00 0.71 0.00 88 1008.6
20260507054018 11 0.0 3.2 0.00 0.71 0.00 88 1008.7
20260507053516 11 0.0 3.2 0.00 0.71 0.00 87 1008.7
20260507053016 11 0.0 3.2 0.00 0.71 0.00 87 1008.6
20260507052516 11 270 1.6 4.8 0.00 0.71 0.00 87 1008.6
20260507052016 11 0.0 3.2 0.00 0.71 0.00 87 1008.8
20260507051517 11 263 0.0 0.0 0.00 0.71 0.00 87 1008.8
20260507051016 11 270 1.6 4.8 0.00 0.71 0.00 86 1008.9
20260507050516 11 270 1.6 4.8 0.00 0.71 0.00 86 1008.9
20260507050016 11 0.0 1.6 0.00 0.71 0.00 87 1009.0
20260507045516 11 0.0 1.6 0.00 0.71 0.00 86 1009.1
20260507045016 11 270 1.6 6.4 0.00 0.71 0.00 86 1009.1
20260507044516 11 0.0 6.4 0.00 0.71 0.00 87 1009.2
20260507044016 11 0.0 3.2 0.00 0.71 0.00 87 1009.4
20260507043516 11 248 1.6 4.8 0.00 0.71 0.00 87 1009.3
20260507043016 11 270 1.6 4.8 0.00 0.71 0.00 87 1009.3
20260507042516 11 270 1.6 6.4 0.00 0.71 0.00 87 1009.2
20260507042016 11 270 1.6 4.8 0.00 0.71 0.00 87 1009.2
20260507041516 11 203 1.6 6.4 0.00 0.71 0.00 87 1009.1
20260507041016 11 0.0 1.6 0.00 0.71 0.00 87 1009.1
20260507040516 11 0.0 1.6 0.00 0.71 0.00 87 1009.0
20260507040016 11 0.0 3.2 0.00 0.71 0.71 87 1009.2
20260507035515 11 270 1.6 8.0 0.00 0.71 0.71 86 1008.9
20260507035015 11 270 1.6 8.0 0.00 0.71 0.71 87 1009.2
20260507034515 11 293 3.2 6.4 0.00 0.71 0.71 87 1009.2
20260507034015 11 315 1.6 4.8 0.00 0.71 0.71 87 1008.8
20260507033515 11 315 1.6 6.4 0.00 0.71 0.71 86 1008.7
20260507033015 11 293 1.6 4.8 0.00 0.71 0.71 87 1008.8
20260507032515 11 248 1.6 6.4 0.00 0.71 0.71 87 1009.0
20260507032015 11 0.0 4.8 0.00 0.71 0.71 87 1008.8
20260507031515 11 0.0 4.8 0.00 0.71 0.71 87 1008.9
20260507031015 11 158 1.6 4.8 0.00 0.71 0.71 87 1009.0
20260507030515 11 203 1.6 6.4 0.00 0.71 0.71 87 1009.1
20260507030015 11 225 3.2 9.7 0.00 0.71 0.71 87 1009.1
20260507025515 11 225 3.2 8.0 0.00 0.71 0.71 87 1009.1
20260507025020 11 248 3.2 8.0 0.00 0.71 0.71 87 1009.0
20260507024515 11 248 4.8 11.3 0.00 0.71 0.71 87 1009.1
20260507024015 11 270 3.2 11.3 0.00 0.71 0.71 87 1009.1
20260507023515 11 248 3.2 8.0 0.00 0.71 0.71 87 1009.0
20260507023015 11 248 4.8 11.3 0.00 0.71 0.71 87 1009.3
20260507022515 11 248 4.8 11.3 0.00 0.71 0.71 87 1009.4
20260507022015 12 248 4.8 14.5 0.00 0.71 0.71 87 1009.4
20260507021515 12 225 4.8 11.3 0.00 0.71 0.71 87 1009.4
20260507021015 12 248 4.8 14.5 0.00 0.71 0.71 87 1009.3
20260507020515 12 293 1.6 6.4 0.00 0.71 0.71 87 1009.2
20260507020015 12 293 3.2 6.4 0.00 0.71 0.71 87 1009.1
20260507015515 12 293 3.2 11.3 0.00 0.71 0.71 87 1009.0
20260507015015 12 248 4.8 12.9 0.00 0.71 0.71 87 1009.1
20260507014515 12 270 3.2 9.7 0.00 0.71 0.71 87 1009.2
20260507014015 12 270 4.8 12.9 0.00 0.71 0.71 88 1009.1
20260507013515 12 248 4.8 11.3 0.00 0.71 0.71 88 1009.1
20260507013015 12 270 3.2 9.7 0.00 0.71 0.71 87 1008.8
20260507012515 12 270 3.2 4.8 0.00 0.71 0.71 88 1008.9
20260507012015 13 270 3.2 11.3 0.00 0.71 0.71 88 1008.8
20260507011515 13 315 4.8 14.5 0.00 0.71 0.71 88 1008.6
20260507011015 13 270 4.8 14.5 0.00 0.71 0.71 89 1008.7
20260507010515 13 270 4.8 11.3 0.00 0.71 0.71 90 1008.5
20260507010015 13 270 1.6 6.4 0.00 0.71 0.71 92 1008.4
20260507005515 13 270 4.8 12.9 0.00 0.71 0.71 92 1008.1
20260507005015 14 270 3.2 12.9 0.03 0.71 0.71 92 1007.9
20260507004515 14 270 4.8 12.9 0.03 0.71 0.71 93 1007.7
20260507004015 14 270 3.2 8.0 0.05 0.71 0.71 93 1007.7
20260507003515 15 293 3.2 9.7 0.05 0.71 0.71 93 1007.4
20260507003015 15 293 3.2 8.0 0.05 0.71 0.71 93 1007.4
20260507002515 15 270 1.6 8.0 0.05 0.71 0.71 93 1007.4
20260507002015 15 270 1.6 4.8 0.05 0.71 0.71 94 1007.5
20260507001515 15 270 1.6 4.8 0.05 0.71 0.71 93 1007.4
20260507001015 15 270 3.2 9.7 0.05 0.71 0.71 93 1007.3
20260507000517 15 0.0 3.2 0.05 0.71 0.71 94 1007.1
20260507000017 16 248 1.6 4.8 0.05 0.71 0.71 94 1007.1
20260506235517 16 248 1.6 3.2 0.05 0.71 0.71 94 1007.1
20260506235017 16 225 1.6 4.8 0.03 0.69 0.69 94 1006.9
20260506234517 16 225 1.6 6.4 0.03 0.69 0.69 95 1006.8
20260506234017 16 225 4.8 11.3 0.00 0.66 0.66 94 1006.7
20260506233517 16 203 3.2 8.0 0.00 0.66 0.66 94 1006.3
20260506233017 16 203 4.8 14.5 0.00 0.66 0.66 94 1006.3
20260506232517 16 203 6.4 16.1 0.00 0.66 0.66 94 1006.2
20260506232017 16 203 4.8 12.9 0.00 0.66 0.66 94 1006.2
20260506231517 16 203 4.8 12.9 0.00 0.66 0.66 94 1006.2
20260506231017 16 203 4.8 14.5 0.00 0.66 0.66 94 1006.1